Wind_Speed
28 29 27 27 26 24 23 21 20 18 17 17 17 14 14 14 13 13 11 10 10 8 7 5 4 3 3 3 3 3 3 2 1 1 2 3 4 3 3 3 2 2 2 1 1 0 1 1 2 2 3 3 3 2 1 1 2 2 3 3 3 4 4 4 4 3 3 3 4 4 5 5 6 7 8 8 8 10 11 12 13 14 14 14 14
25 26 26 27 25 23 23 22 22 20 18 19 20 18 17 16 15 15 14 12 12 10 9 7 6 6 5 4 3 3 2 2 2 1 1 2 3 4 5 5 5 5 4 3 3 3 3 2 2 2 1 0 1 1 1 1 0 1 2 2 3 4 4 5 6 5 4 4 5 7 7 7 8 9 9 10 11 10 11 11 11 12 11 11 11
20 23 25 26 25 23 22 23 23 21 20 21 21 20 20 19 16 16 15 14 13 12 12 11 9 9 8 7 7 6 5 5 5 4 3 3 3 4 5 6 7 7 7 6 5 5 5 5 5 4 3 3 3 3 3 3 3 2 2 3 4 5 6 7 9 10 9 9 9 10 11 11 11 11 12 12 13 13 13 12 13 13 12 12 12
17 21 24 25 26 26 25 25 24 23 22 22 21 20 20 19 18 18 18 17 15 14 14 13 13 12 11 11 11 10 9 9 8 6 6 6 7 7 7 8 8 9 9 9 8 7 7 7 7 7 6 6 5 5 5 5 5 5 5 5 6 6 8 9 11 12 13 13 12 13 14 14 14 14 15 15 14 14 15 15 15 15 14 14 14
16 21 25 27 27 26 26 25 24 24 24 23 21 20 18 19 21 22 20 19 18 17 16 16 15 14 13 13 14 14 12 12 12 10 8 9 10 11 11 11 11 11 11 11 11 10 9 8 8 9 9 8 7 7 7 7 7 7 8 8 8 9 9 10 11 12 14 15 15 15 15 16 16 16 17 18 17 17 16 16 16 17 17 16 15
15 19 23 26 25 23 22 22 21 21 20 19 19 19 19 20 23 23 22 20 20 20 19 18 17 16 15 15 16 17 16 17 17 14 11 11 13 14 15 14 15 15 15 14 14 13 12 10 10 10 10 9 9 9 8 8 8 9 10 11 11 12 13 13 13 14 14 16 17 17 16 17 18 17 18 19 21 21 21 19 18 17 18 19 18
14 16 19 21 21 20 20 20 20 19 17 16 18 19 21 23 25 24 22 20 20 20 19 19 19 19 18 18 18 20 20 20 18 16 15 15 15 13 13 14 16 17 18 17 16 16 15 13 12 12 11 9 9 10 9 8 8 10 12 13 14 15 15 16 16 16 17 17 18 18 18 18 19 20 19 20 21 22 23 24 22 20 20 21 21
12 13 15 16 18 19 18 18 17 17 17 18 19 19 20 22 23 21 20 19 20 20 19 19 19 19 20 20 20 21 20 19 18 17 17 17 16 14 13 15 18 19 20 19 19 18 18 16 15 15 13 9 9 10 11 10 8 9 12 14 15 16 17 18 18 18 19 19 19 19 20 19 20 21 21 22 23 22 23 25 26 25 24 24 23
10 10 10 10 12 14 13 12 12 13 13 13 12 11 11 12 12 12 13 14 14 14 14 15 15 16 17 18 19 20 20 20 19 18 18 19 20 21 21 21 22 22 21 20 21 21 20 19 18 18 16 12 10 11 12 12 12 13 15 15 15 17 18 19 20 20 20 20 20 20 21 21 21 23 23 23 25 25 25 26 27 27 28 27 25
10 10 8 8 8 9 9 8 8 8 8 7 7 6 6 5 5 5 5 6 6 6 7 7 7 8 9 11 13 15 17 19 19 19 19 20 21 22 23 22 23 24 23 22 22 23 24 23 21 20 19 15 13 13 13 14 14 16 17 15 14 16 18 19 20 21 21 21 21 22 23 22 22 24 25 25 25 26 27 28 29 29 30 30 28
11 11 10 9 9 8 8 7 6 7 7 6 7 7 6 6 6 5 5 5 5 6 5 5 4 5 5 6 7 9 12 13 15 17 18 19 20 21 22 22 23 24 24 24 23 24 26 25 23 22 21 19 17 16 15 15 15 15 16 15 16 19 20 20 20 21 22 22 23 24 25 25 24 24 26 27 27 28 28 29 30 31 31 33 32
9 10 10 10 10 9 8 7 7 6 6 6 6 6 5 6 6 6 6 6 6 6 6 6 6 5 5 6 6 7 8 9 10 12 14 16 17 18 19 20 20 21 23 25 24 24 26 27 25 24 24 22 21 19 19 18 16 14 14 15 17 19 21 22 21 22 23 24 25 25 26 27 27 26 27 29 30 30 30 30 31 31 31 32 33
6 7 8 8 9 8 8 9 8 8 7 7 7 7 7 6 6 7 7 8 8 8 8 8 8 8 7 7 7 8 8 9 10 11 11 12 12 13 15 16 18 19 21 23 23 23 25 27 27 26 26 25 23 21 21 20 17 16 15 14 16 19 22 24 24 24 24 25 27 27 27 28 29 29 29 30 31 31 32 32 32 33 33 33 34
4 5 5 5 5 5 6 7 8 8 8 8 8 8 8 8 8 8 8 8 8 8 8 9 9 10 10 10 10 10 10 10 10 12 12 12 13 13 14 15 17 18 18 18 18 19 23 27 28 28 27 26 24 24 23 21 18 17 16 16 18 20 23 25 25 25 25 26 28 28 28 29 30 30 30 30 30 31 32 33 34 35 36 36 37
3 4 3 2 3 4 4 5 6 7 8 8 8 8 8 8 8 7 7 7 7 7 8 8 9 9 11 13 14 14 13 12 12 12 13 14 14 15 16 16 16 16 16 15 15 16 21 26 29 28 26 25 25 24 23 20 19 19 19 19 20 21 24 26 27 27 27 28 29 29 29 30 31 31 31 31 31 32 33 34 35 36 38 39 39
3 2 2 2 3 4 4 4 5 6 7 7 7 8 9 9 8 7 7 7 8 9 9 10 10 9 10 12 13 15 15 15 14 14 15 15 16 16 17 17 16 16 15 14 13 15 19 25 27 26 24 24 24 23 21 20 20 21 22 22 21 22 25 27 28 28 29 30 31 31 31 32 32 33 33 33 34 35 36 37 37 38 40 42 42
5 4 4 3 4 4 5 5 5 5 6 6 7 8 8 8 9 10 11 11 12 12 12 12 12 12 12 12 12 13 14 15 15 15 15 16 17 17 17 17 17 16 15 14 14 17 22 25 25 24 23 23 22 21 20 20 21 22 21 21 21 22 25 27 28 29 30 31 32 32 33 33 34 35 35 35 35 36 37 39 38 38 40 43 44
7 6 5 5 5 6 6 7 7 7 8 8 8 9 9 10 11 12 14 15 15 15 15 15 15 14 14 14 14 15 15 16 16 16 15 16 17 18 17 16 15 15 15 16 18 21 24 24 23 22 22 21 21 21 21 21 21 21 20 21 23 24 26 28 29 30 30 31 32 33 34 34 34 35 34 33 33 32 33 34 33 33 36 38 40
10 9 8 9 9 9 9 10 11 11 12 12 12 13 13 14 15 15 16 17 17 17 17 16 16 15 16 16 16 16 16 17 17 16 15 15 16 17 17 16 15 15 16 18 20 22 23 23 23 23 22 21 21 21 21 21 20 20 22 24 25 27 28 29 31 31 32 33 34 34 34 33 32 32 31 30 29 27 26 27 26 27 29 31 32
11 11 12 12 12 12 13 13 13 14 14 14 14 14 14 15 16 15 15 15 17 17 17 17 16 16 16 16 17 17 18 18 18 17 15 14 14 15 15 15 14 15 16 18 20 21 22 23 22 21 20 19 19 20 20 21 22 24 26 27 28 29 31 31 32 33 33 34 33 33 32 31 30 29 28 27 26 25 24 23 22 23 24 26 27
11 11 13 13 14 15 15 15 15 15 15 15 15 15 15 15 16 16 16 16 17 18 18 18 17 16 16 17 17 18 18 18 18 17 15 13 12 13 14 14 14 15 16 18 20 20 20 19 18 17 18 18 19 20 21 23 24 26 27 28 29 31 32 32 33 32 32 32 31 31 30 29 28 27 27 26 25 24 23 22 20 20 20 22 24
11 13 15 16 17 17 17 16 15 15 16 17 18 19 19 19 20 19 19 19 19 18 18 19 18 18 19 19 19 18 18 17 16 15 14 13 12 13 13 13 14 14 15 17 18 18 17 16 16 17 18 19 21 22 23 25 25 26 27 28 29 29 30 30 30 29 29 29 29 29 29 28 28 28 27 26 25 23 22 21 20 19 20 20 21
12 14 16 17 18 19 18 17 17 18 19 20 21 21 21 21 21 20 19 19 18 18 19 20 20 21 21 20 20 19 17 15 13 12 12 12 13 13 12 12 12 13 14 15 15 15 16 16 17 19 20 22 23 24 25 26 26 26 26 26 26 26 26 26 26 26 26 26 27 28 29 29 29 28 27 26 24 24 23 23 22 21 21 21 21
14 15 15 16 17 18 19 20 21 21 20 20 20 19 18 18 18 18 18 18 18 20 20 21 21 22 21 20 20 20 18 15 12 11 10 11 11 11 11 12 13 14 14 14 15 16 18 18 19 20 21 22 23 24 24 24 24 24 23 23 23 24 23 23 23 24 25 26 27 29 29 27 26 26 25 25 24 25 25 25 25 23 23 23 23
15 16 16 16 17 18 19 20 20 20 20 20 21 20 20 20 20 19 20 21 22 23 21 20 21 22 21 21 20 20 18 15 12 10 10 10 11 11 12 15 15 15 15 15 16 17 17 18 18 19 20 21 21 21 21 21 20 20 20 20 21 21 22 23 23 24 26 27 27 27 26 24 23 24 24 25 25 26 26 27 28 27 27 28 28
16 17 17 17 17 18 19 19 20 21 22 23 24 25 25 26 26 26 26 25 25 25 24 21 21 21 21 21 21 21 19 16 13 12 12 12 12 12 13 15 15 15 15 15 15 15 16 16 17 17 18 18 18 18 18 18 18 19 19 20 21 21 22 23 24 25 26 26 25 25 24 24 25 25 26 26 27 27 27 28 29 30 30 31 32
20 20 21 21 21 22 22 23 24 24 25 26 27 28 29 29 29 28 27 24 23 23 23 21 21 21 21 21 22 22 19 15 13 13 13 13 14 13 13 14 14 14 14 14 14 14 14 15 15 15 15 15 15 15 16 17 18 20 21 21 22 22 23 23 24 24 24 24 25 25 26 27 28 28 27 28 28 28 27 28 29 30 30 31 33
20 21 22 22 24 25 26 26 27 27 28 29 30 30 29 28 28 26 25 23 22 22 21 20 20 20 20 21 22 20 16 13 13 13 13 14 13 12 12 12 12 12 11 11 11 12 12 13 12 12 12 12 12 13 15 17 19 20 21 21 21 21 21 21 21 22 22 24 26 27 28 29 29 29 29 29 29 28 27 27 29 30 29 29 31
20 20 21 21 23 24 25 26 27 28 29 30 31 31 30 29 29 28 28 28 27 26 25 24 22 20 21 23 22 17 14 14 13 12 12 12 11 10 10 10 10 9 9 9 9 10 10 10 10 9 9 10 12 14 16 18 18 18 17 17 17 17 18 19 21 22 23 25 27 28 29 29 29 29 29 29 29 28 27 27 28 28 28 28 29
19 19 20 21 22 23 25 26 27 29 31 31 32 33 33 33 33 34 32 29 26 25 25 24 22 22 21 20 17 12 10 12 13 12 12 11 10 9 9 8 8 7 7 7 7 7 7 7 7 8 9 12 14 16 17 17 16 15 15 15 16 17 18 20 21 23 24 26 27 28 28 28 28 28 28 28 28 28 26 26 26 26 26 26 26
19 20 21 22 23 25 27 29 30 31 32 33 33 34 35 36 37 35 30 25 22 21 21 22 23 22 17 13 12 10 9 10 13 13 11 10 9 8 7 7 6 6 6 6 5 4 4 5 7 9 12 14 16 16 15 15 15 15 16 17 17 18 20 21 23 24 25 26 26 26 26 26 26 27 27 27 27 27 26 25 24 24 24 24 25
20 21 23 24 26 27 28 30 31 32 33 34 35 36 35 35 34 30 24 20 18 19 20 20 20 18 13 10 11 12 13 14 13 12 10 9 9 9 8 7 6 5 5 4 3 4 5 7 9 12 14 15 15 15 14 14 15 16 18 20 21 21 22 23 23 24 24 24 25 25 25 24 25 25 26 26 26 25 25 24 23 23 24 24 25
21 24 26 27 28 29 29 29 30 31 32 33 33 32 30 28 26 22 20 18 18 18 18 16 15 13 11 10 12 14 16 15 13 11 10 10 11 10 9 6 4 2 2 3 4 6 8 9 11 13 15 15 15 14 14 15 16 17 19 21 22 22 22 22 22 22 22 22 22 23 23 23 23 24 24 24 24 24 24 24 23 23 23 24 25
24 25 26 26 27 27 26 25 24 23 23 24 24 23 21 21 20 20 20 20 19 17 14 12 11 12 13 15 15 16 16 14 12 12 12 12 12 10 7 4 2 0 2 4 6 7 8 10 12 14 15 15 14 14 14 15 16 17 19 20 21 21 21 21 21 21 21 21 21 21 22 22 22 22 23 23 23 23 23 24 23 23 23 24 24
21 21 21 22 22 21 19 17 14 13 14 16 15 15 16 18 19 20 20 20 20 20 20 18 17 16 17 18 17 16 15 14 14 14 13 12 10 7 5 2 1 2 3 5 6 7 9 11 13 14 14 13 12 12 13 15 17 18 20 20 21 21 20 20 20 20 20 20 21 21 21 21 21 21 21 22 22 23 23 23 23 23 23 23 23
16 16 16 16 14 13 12 12 10 8 9 11 11 13 16 19 21 21 21 21 23 25 25 24 22 20 19 18 17 16 15 15 15 15 12 10 7 4 2 2 3 4 4 5 7 8 10 11 12 12 12 11 10 12 14 16 18 18 19 19 20 21 21 21 21 21 21 21 21 20 20 21 20 20 20 21 21 22 22 22 22 22 22 22 22
12 10 9 8 7 8 9 9 7 5 5 8 10 12 16 20 21 22 23 24 25 25 24 24 24 22 20 18 17 16 16 16 15 13 10 7 4 2 2 4 5 4 4 6 7 8 10 11 10 10 10 9 10 13 15 16 16 17 19 20 21 22 22 22 21 21 21 21 21 20 20 20 19 19 19 20 21 21 21 22 21 21 21 20 20
6 4 4 3 2 3 2 2 4 6 7 9 12 15 18 21 23 24 25 25 24 23 22 22 22 21 21 19 18 18 17 16 13 11 8 4 2 1 4 5 5 4 4 6 7 8 9 9 8 7 7 9 12 14 15 15 16 17 20 22 23 24 23 22 21 21 20 20 20 20 20 19 19 18 18 20 21 21 20 20 20 20 21 20 19
6 6 5 4 4 6 9 13 17 18 18 19 21 22 23 24 25 25 24 23 23 22 21 21 21 20 19 18 18 18 17 15 12 8 5 2 1 3 5 5 4 4 4 5 6 7 7 7 5 5 8 10 12 13 15 16 17 18 20 23 25 25 24 23 22 21 20 20 21 21 20 20 19 19 18 19 19 19 19 19 19 20 20 20 19
10 11 11 11 12 14 15 17 19 19 19 19 20 20 20 20 21 22 22 22 22 21 20 20 20 19 17 16 15 16 16 14 11 7 4 2 3 4 4 5 4 3 3 5 6 6 5 5 5 7 9 11 12 14 16 18 19 19 20 23 25 25 24 23 22 22 21 21 22 22 22 21 21 20 19 18 18 18 18 19 19 19 19 19 18
15 16 16 16 15 14 14 14 15 15 16 16 17 17 17 17 18 20 20 20 19 18 18 18 18 17 15 14 14 14 13 11 9 7 5 4 4 4 4 4 3 2 3 4 5 4 4 4 6 8 10 11 13 15 17 19 20 20 20 22 24 25 25 24 23 23 22 22 22 23 23 22 20 20 19 17 17 17 18 18 18 18 17 16 16
17 16 15 12 9 8 9 9 11 13 14 15 15 16 17 18 18 18 17 16 16 15 15 15 15 15 15 14 13 13 11 10 8 6 6 5 4 3 3 3 2 1 2 3 2 3 3 5 7 9 11 12 14 16 18 21 22 21 20 21 23 26 27 26 25 24 23 23 22 23 23 21 20 19 18 18 18 18 17 17 16 16 15 15 14
13 11 11 8 7 8 9 9 10 11 12 12 11 11 12 13 14 13 13 14 14 14 14 15 15 15 14 13 13 12 11 9 8 6 6 5 4 3 3 2 1 0 0 1 1 2 3 5 7 9 11 12 14 16 18 21 23 23 21 21 22 25 27 28 28 27 25 24 23 23 24 23 21 20 19 19 19 18 17 16 15 14 13 13 12
11 11 11 10 10 11 11 10 10 12 13 13 13 12 11 12 13 13 13 14 14 14 14 14 14 14 15 15 14 13 10 8 7 6 5 4 4 4 3 1 1 0 1 2 3 2 2 4 6 8 10 12 14 16 18 20 23 23 22 20 21 24 26 28 29 28 27 25 24 24 25 24 22 21 20 19 19 18 16 14 12 12 11 10 10
12 12 11 10 11 11 10 9 10 12 13 15 15 14 14 14 15 15 15 14 14 13 13 13 13 14 15 15 13 11 9 8 6 5 5 5 5 4 2 1 1 0 2 3 4 2 1 3 5 7 9 12 14 16 18 20 22 24 22 20 20 22 25 27 29 28 27 25 24 24 24 24 22 20 20 19 19 17 16 14 12 11 10 9 8
12 11 10 10 10 10 9 9 10 10 11 11 12 13 14 16 16 15 14 14 13 13 13 13 13 13 13 12 11 10 9 8 6 5 6 7 5 2 0 0 0 1 3 5 4 2 2 3 5 7 9 11 13 15 18 20 21 23 23 21 20 21 23 25 27 28 27 25 23 23 23 23 21 20 19 19 18 17 15 14 12 11 9 9 7
11 10 10 10 10 9 8 8 9 10 11 11 11 13 14 15 14 14 13 13 13 13 12 12 12 11 11 11 10 9 8 7 6 6 7 7 4 1 0 0 0 2 4 5 5 4 5 5 5 6 9 11 13 15 17 19 20 22 23 22 21 21 22 24 26 27 27 25 23 22 22 22 21 19 18 18 17 16 15 14 13 10 8 7 5
10 11 12 11 10 9 8 8 9 11 13 13 13 14 14 14 14 14 13 12 12 11 11 11 10 10 10 9 9 8 8 7 6 7 8 7 3 1 1 1 1 2 3 4 5 6 7 6 5 6 8 10 13 16 17 18 19 21 22 23 22 21 21 23 25 26 26 25 23 22 21 20 20 18 17 17 17 16 15 15 13 11 8 6 4
10 12 13 12 10 9 8 8 9 12 13 14 15 15 14 13 12 11 10 9 9 9 9 9 9 9 9 10 9 9 8 8 7 8 8 6 3 2 1 1 2 2 3 3 4 5 6 5 4 5 8 10 13 15 17 18 19 20 22 23 23 22 21 22 23 24 26 26 25 23 21 20 19 18 17 16 16 16 15 15 14 12 10 8 6
12 14 13 11 9 9 8 9 10 12 12 12 12 12 11 10 9 8 8 7 7 7 7 7 7 7 8 9 10 9 9 8 7 8 8 7 4 3 2 2 2 2 2 3 4 6 6 5 4 6 9 10 13 15 17 18 19 20 21 23 23 22 22 22 23 23 24 26 26 24 22 20 19 18 17 16 15 15 15 14 14 13 12 10 9
13 14 12 10 9 9 9 10 11 11 11 11 10 9 9 9 8 8 7 8 8 8 7 7 7 6 7 9 10 10 9 8 7 8 8 7 5 3 2 2 3 2 2 3 4 5 5 4 5 7 9 11 13 15 16 17 18 19 20 21 22 22 22 23 24 24 23 24 26 25 23 20 18 17 17 16 16 15 14 14 14 14 13 12 10
Wind_Direction
199 203 200 189 189 193 197 203 209 212 219 224 226 223 220 220 220 220 221 219 216 216 216 208 203 203 189 175 163 153 152 146 145 239 277 276 268 259 253 244 226 214 210 197 176 69 89 143 155 123 108 98 81 74 82 90 86 78 70 60 55 47 42 37 36 55 53 17 3 347 328 316 310 303 291 283 280 277 275 275 274 273 273 273 274
191 198 200 194 191 194 198 202 209 212 213 218 225 226 223 222 221 224 228 227 223 223 222 222 229 235 235 239 237 214 191 182 185 216 262 263 259 264 269 266 261 256 253 253 257 266 273 265 244 224 177 89 30 8 337 318 23 68 37 12 14 2 353 351 343 339 344 342 339 336 330 323 320 318 309 300 295 290 286 283 282 280 279 279 279
185 193 199 197 195 198 202 204 206 208 207 211 219 221 218 218 219 223 229 230 229 229 227 229 233 236 243 251 252 253 252 247 250 260 253 235 240 267 284 290 287 277 268 264 266 269 273 278 275 260 249 253 265 278 293 299 301 309 312 316 332 332 322 319 320 320 322 326 331 332 331 329 325 323 319 312 307 303 297 292 288 285 283 282 281
185 194 201 199 198 202 204 204 204 206 207 209 214 212 209 213 218 220 224 227 229 229 230 233 234 233 238 248 255 262 269 270 268 274 276 261 255 265 279 289 292 291 285 277 273 273 271 272 277 274 266 264 267 272 281 292 297 295 296 302 309 311 309 307 309 312 314 318 325 328 327 326 325 323 318 312 309 308 306 304 301 296 292 290 288
184 194 201 202 202 203 203 204 205 208 211 213 215 214 213 220 223 223 224 228 232 233 235 239 239 235 238 245 251 255 269 281 277 272 279 279 272 269 270 274 277 278 279 280 280 279 272 266 268 270 269 271 275 280 285 294 304 303 301 301 301 301 301 300 301 304 307 311 315 318 320 319 318 319 317 313 310 307 305 307 307 303 300 298 296
184 192 199 204 208 209 210 215 217 219 223 224 226 229 234 238 239 237 235 234 235 238 242 247 247 244 244 247 249 252 266 281 280 270 266 268 272 272 268 270 272 269 266 270 275 277 275 266 260 260 261 264 269 278 290 301 310 313 307 301 298 298 298 297 298 300 303 306 309 311 312 313 313 313 313 313 312 310 308 306 305 303 301 299 296
184 193 201 206 211 214 218 224 227 228 233 236 237 241 244 245 246 246 242 237 238 243 250 257 255 250 251 252 254 260 269 275 275 268 261 261 265 269 267 268 271 268 263 263 267 271 271 267 262 258 256 260 263 269 282 294 302 308 307 303 301 300 299 299 301 303 304 304 306 307 308 310 311 310 310 310 309 308 307 305 303 301 298 297 296
168 182 197 206 212 218 223 227 231 235 241 244 243 245 247 245 245 246 246 245 247 252 258 263 261 258 258 259 260 264 267 269 269 265 262 260 261 267 273 272 272 272 265 260 262 266 266 265 264 259 258 267 274 269 270 278 287 300 304 303 303 302 302 303 305 306 306 306 306 306 307 308 308 306 306 306 306 305 305 306 305 303 301 299 300
148 153 166 180 195 208 213 215 221 227 232 235 233 234 238 239 238 240 245 248 250 253 257 258 260 262 263 263 263 264 264 266 267 266 263 263 264 268 272 271 271 274 270 260 256 258 260 262 264 263 261 267 281 280 274 276 287 302 304 297 293 296 300 304 307 307 306 306 305 305 304 304 304 305 305 307 309 308 307 306 304 303 301 299 298
145 143 145 149 158 172 178 180 188 195 196 198 198 201 203 203 203 209 217 227 234 240 247 251 259 268 272 271 269 267 267 268 268 267 265 265 266 266 267 267 270 274 271 261 255 253 254 257 260 264 264 262 271 281 276 274 286 301 300 290 287 296 301 302 304 305 305 305 304 304 303 302 303 306 307 307 307 306 305 304 303 302 301 299 296
159 156 157 161 163 166 170 175 184 190 192 196 200 201 203 206 209 209 210 218 227 233 239 250 266 284 297 301 293 283 278 274 272 270 266 264 264 264 266 269 272 273 269 263 257 251 250 253 256 259 260 257 258 264 263 263 275 289 292 289 294 301 302 301 302 302 302 301 301 302 303 303 303 305 306 306 305 305 305 304 303 303 303 302 300
173 173 171 172 174 174 176 184 191 197 204 209 210 210 214 219 223 227 230 235 241 246 251 255 263 273 285 298 304 300 291 284 278 273 268 265 264 265 268 271 272 272 267 262 257 250 248 251 253 255 256 253 251 253 255 257 265 275 281 286 294 300 301 303 302 300 299 299 300 302 303 304 304 306 308 308 306 306 306 304 304 303 302 301 301
149 168 173 176 180 184 191 199 203 206 212 220 226 230 233 236 242 247 252 256 258 262 267 267 268 272 274 278 284 286 288 288 285 278 271 271 272 271 271 272 271 269 266 263 261 255 250 250 251 252 250 246 245 248 251 254 264 273 277 284 296 302 304 303 301 298 298 299 301 302 303 304 305 307 307 306 305 304 304 302 302 302 301 300 300
126 139 153 172 193 203 207 206 208 212 219 227 235 240 243 246 251 256 259 264 268 271 274 274 274 274 274 276 277 278 279 282 283 280 277 281 286 283 277 276 274 272 271 271 269 261 253 250 248 246 242 240 243 247 250 256 266 275 279 287 298 304 304 300 296 293 294 296 297 298 300 300 301 302 302 302 302 302 302 301 300 300 299 300 299
134 132 149 175 220 237 235 218 213 221 232 239 241 242 246 249 253 256 259 264 274 282 285 284 282 277 272 271 272 275 275 274 276 280 282 286 289 288 283 281 280 278 277 277 272 262 253 247 243 240 240 242 245 248 254 263 273 280 285 289 294 299 299 294 290 290 292 294 295 296 297 297 298 299 300 301 301 301 300 299 298 298 297 297 296
168 185 206 215 222 234 241 232 220 221 232 245 254 260 265 267 270 277 281 281 282 284 284 284 285 282 276 271 269 269 270 270 272 277 282 285 287 290 289 287 288 288 286 281 271 256 244 241 241 242 242 244 247 251 260 268 274 279 284 286 287 290 291 288 287 290 292 293 294 295 296 297 298 299 300 300 299 299 297 294 293 294 293 292 292
195 218 237 236 224 230 240 242 236 234 238 250 262 269 272 275 280 287 291 290 289 286 285 285 287 287 286 283 278 275 271 270 271 275 279 282 284 288 291 290 290 289 283 272 256 240 233 235 239 241 240 240 246 254 261 266 271 275 278 281 281 283 284 285 287 288 289 290 291 293 294 296 296 297 297 296 296 295 294 292 292 292 290 289 290
214 228 248 255 256 256 253 250 251 252 253 256 261 266 269 271 275 278 280 282 282 280 281 283 285 286 286 286 285 282 279 276 275 276 278 280 280 283 286 286 284 279 269 257 245 236 233 234 235 236 237 242 251 259 264 268 271 274 278 280 280 281 284 285 285 285 285 285 287 289 290 292 292 292 293 293 292 293 292 292 292 291 289 288 289
229 242 258 266 270 270 266 265 265 265 268 270 272 272 272 273 273 274 276 277 275 274 276 280 281 279 280 282 283 283 282 282 282 283 283 281 278 278 279 278 274 268 260 252 244 237 235 235 235 237 243 252 260 266 270 271 273 277 280 281 282 284 285 284 284 284 285 286 288 289 290 291 292 292 292 292 291 291 290 291 292 293 292 291 291
247 255 264 269 271 271 271 270 270 273 278 279 276 270 268 271 273 275 277 276 275 276 280 284 283 278 276 277 280 281 282 284 287 289 289 286 279 275 274 272 267 261 255 250 245 239 237 237 239 244 252 259 265 268 270 272 274 277 279 281 284 285 285 285 286 288 289 291 292 293 293 294 294 294 294 294 293 293 291 290 292 294 295 296 296
267 267 267 267 266 266 269 271 272 276 279 278 274 268 268 271 273 274 275 275 277 280 281 284 283 279 276 277 278 280 281 283 286 290 291 287 280 274 271 268 263 257 251 245 242 240 240 243 247 253 258 261 263 264 265 268 272 275 278 281 282 283 284 285 287 289 291 292 293 293 294 294 295 295 295 295 296 296 295 295 293 292 293 296 298
270 267 265 264 264 266 270 271 270 271 272 272 271 269 271 273 273 274 274 275 279 283 282 281 280 278 278 281 283 283 283 284 286 288 288 284 273 264 262 260 255 251 247 244 242 242 245 251 258 264 266 266 265 265 267 271 276 279 281 281 281 282 283 285 287 289 290 291 292 293 295 296 296 296 297 298 299 299 298 297 293 289 287 288 290
256 257 258 260 263 266 268 268 269 272 275 276 273 270 270 270 270 271 271 271 275 280 281 280 279 278 279 281 283 284 285 286 286 284 281 274 262 254 253 255 254 251 249 250 251 255 259 263 268 272 272 271 270 271 274 278 279 280 281 281 282 284 286 288 290 291 292 293 294 295 297 298 298 299 300 301 301 300 298 296 293 290 287 284 281
242 245 249 255 260 264 267 270 274 276 277 275 271 266 263 261 261 263 264 266 271 276 278 278 277 275 274 275 279 283 283 283 284 278 269 262 256 255 259 261 260 257 255 256 260 265 267 268 268 269 268 270 273 276 278 280 281 282 284 285 287 288 290 291 293 293 294 295 296 297 298 299 300 301 302 302 300 298 296 294 290 287 284 281 278
242 244 247 254 260 264 268 271 272 272 271 271 269 265 264 264 264 263 263 267 271 273 275 276 273 269 267 270 276 279 276 275 274 265 253 252 255 258 263 263 261 258 258 259 262 263 264 265 267 268 269 272 275 277 279 281 284 285 287 287 289 290 291 291 292 294 296 297 297 296 297 298 299 299 298 298 296 295 294 292 289 287 284 282 279
252 254 257 260 264 267 269 270 271 270 270 270 270 270 271 272 273 273 272 272 272 271 272 272 269 266 266 270 273 271 267 265 262 250 245 251 252 253 260 262 259 256 256 257 259 261 264 266 268 269 271 273 275 278 282 284 286 287 288 289 289 289 289 291 294 296 297 296 295 295 294 295 294 293 292 292 291 291 292 291 290 289 287 285 283
259 261 263 266 269 271 273 274 274 274 273 273 275 277 277 277 277 277 276 275 272 269 269 268 264 261 262 265 266 262 257 252 246 241 243 249 247 245 253 258 254 252 254 256 259 263 263 264 265 268 272 277 281 285 289 291 293 294 292 290 288 287 288 291 294 294 294 294 293 293 293 293 292 291 289 288 288 289 291 290 290 289 288 286 285
266 267 268 268 269 271 272 274 276 277 278 278 279 280 280 277 274 273 272 271 269 267 266 266 263 260 261 263 262 255 244 236 236 240 245 247 245 243 248 250 249 250 252 254 256 258 259 262 268 272 277 282 287 292 297 300 299 297 293 289 287 287 288 289 290 291 291 291 292 293 293 293 293 292 290 288 286 287 288 288 288 289 289 287 285
275 273 271 270 270 271 274 276 279 280 280 280 280 279 278 274 271 271 271 270 268 266 265 265 265 266 270 270 262 249 238 234 235 238 238 234 232 235 237 238 241 244 246 249 254 259 264 268 271 274 280 288 297 303 305 305 303 299 295 292 290 288 288 289 290 291 292 292 292 293 295 295 295 294 294 291 290 289 289 288 288 290 290 289 286
277 276 274 274 275 277 278 279 279 279 278 278 276 275 274 273 272 272 272 270 267 264 261 261 263 266 268 263 250 238 237 236 226 219 216 211 209 217 221 224 230 237 244 255 265 271 273 273 274 284 298 307 312 312 310 308 305 302 298 295 292 290 290 291 293 295 296 296 296 297 298 299 299 299 298 297 295 295 293 292 291 291 291 289 286
274 274 275 276 278 279 280 279 278 277 275 274 273 271 270 270 270 270 268 264 259 256 254 254 254 254 250 239 222 210 213 217 207 197 193 192 195 201 203 205 217 232 245 258 269 280 289 297 306 316 321 321 318 315 310 305 302 300 299 298 297 298 300 302 303 303 302 301 302 302 301 302 302 301 300 298 297 297 296 296 295 294 292 290 287
274 276 278 279 279 280 280 278 277 275 274 271 269 267 265 264 263 263 259 251 247 247 248 247 244 238 231 226 222 207 192 186 183 180 182 186 184 183 184 191 210 232 251 269 298 323 328 328 328 328 327 323 317 311 306 303 303 304 306 308 307 307 309 309 307 305 304 304 304 303 302 302 302 301 300 299 297 297 298 298 297 295 294 292 289
281 282 282 282 282 281 281 280 278 276 273 268 264 261 257 255 254 250 240 235 237 241 243 239 233 224 212 206 203 189 174 168 170 174 178 177 172 172 177 185 198 231 296 332 341 336 330 330 329 325 323 320 313 307 307 309 310 312 314 314 314 314 314 313 311 309 308 307 305 304 304 304 303 301 300 299 298 298 298 297 297 296 295 293 291
283 284 284 283 282 282 281 281 279 274 268 264 260 253 244 241 242 239 233 230 226 218 206 196 190 183 172 166 167 164 160 161 165 167 168 168 168 170 170 165 162 331 345 344 337 332 330 329 324 320 318 315 310 307 311 315 318 321 323 323 323 322 320 318 316 314 312 310 308 308 308 307 306 305 303 301 300 299 297 297 296 296 295 294 293
285 284 283 281 281 282 283 283 280 272 260 254 249 238 227 225 229 230 227 218 201 177 158 148 146 148 147 147 150 152 153 156 158 160 165 168 168 162 148 125 57 356 352 343 336 334 331 325 320 318 317 313 310 314 322 330 334 336 335 332 329 327 326 323 321 319 316 315 313 313 312 311 309 307 305 303 300 298 296 296 296 295 295 294 294
283 279 277 279 282 288 291 291 292 284 259 241 233 227 221 217 213 207 197 183 167 153 144 141 141 142 145 148 148 149 150 151 153 158 162 163 155 140 105 34 6 359 353 343 337 334 328 322 319 316 312 312 321 334 343 346 345 344 341 338 337 337 335 332 329 327 324 321 319 318 316 313 311 309 306 303 300 298 298 298 298 297 296 294 294
272 266 268 277 287 293 294 292 292 284 252 230 221 213 205 196 187 174 160 150 144 140 140 142 144 147 150 150 148 146 147 148 152 159 162 157 145 118 23 6 3 359 351 343 336 331 326 321 316 311 312 328 348 352 350 349 348 349 350 349 348 347 343 339 335 332 328 325 323 322 320 317 315 313 310 307 305 303 302 302 300 298 295 294 293
237 223 225 247 277 293 282 200 149 145 156 162 161 159 156 152 147 142 137 135 135 136 139 144 146 147 148 146 144 144 147 151 159 166 167 161 157 355 355 355 353 351 348 343 336 332 327 320 313 315 337 2 4 355 348 349 353 356 355 353 352 351 348 344 340 337 333 331 330 329 327 324 321 318 315 311 309 307 306 304 302 299 296 295 294
152 143 144 142 126 120 123 123 120 118 121 126 130 132 133 133 134 135 136 136 136 137 141 145 147 148 148 147 149 152 157 164 172 178 179 188 267 320 334 339 339 341 345 345 342 336 327 320 328 359 15 12 3 355 352 354 356 356 355 354 353 353 352 349 346 344 341 339 338 338 336 334 332 327 322 316 313 311 310 308 306 303 299 296 295
135 128 124 123 122 120 117 116 117 118 121 128 133 136 136 135 136 137 138 137 137 140 145 150 153 155 154 155 161 168 173 179 186 192 202 238 284 308 319 321 324 337 353 353 346 338 333 344 15 25 19 10 4 2 1 359 356 355 355 355 355 357 356 352 350 349 346 343 344 344 343 341 338 333 327 321 317 315 314 312 309 306 302 298 296
138 130 125 123 119 113 107 108 116 123 129 137 145 148 146 145 144 143 143 142 142 143 148 153 159 162 164 167 172 178 183 188 193 199 219 254 278 293 302 306 316 350 9 359 350 350 3 25 33 28 22 17 13 9 6 2 358 355 354 354 357 1 1 357 354 352 349 346 347 348 347 344 341 335 331 327 325 321 317 314 311 308 304 300 297
142 137 135 129 115 106 107 113 124 133 137 140 144 144 144 146 147 147 148 151 153 156 160 164 168 173 177 179 179 179 184 191 198 211 236 255 260 263 281 298 321 22 12 1 8 27 36 39 37 32 28 23 18 13 9 4 360 356 354 353 356 0 3 1 358 355 351 349 349 349 350 349 345 340 337 335 333 329 325 321 315 310 306 302 297
152 148 145 133 115 116 122 123 129 139 142 143 144 147 151 154 154 152 151 154 160 168 172 174 178 183 184 181 178 179 186 196 207 223 239 240 231 243 274 306 352 49 32 69 92 78 58 49 42 34 28 23 20 15 10 6 1 357 353 352 353 357 1 2 1 357 352 350 350 350 352 352 351 347 345 344 341 337 333 328 321 315 310 305 300
150 139 132 124 121 126 131 129 128 129 129 129 132 138 147 156 160 159 157 158 164 170 171 173 179 181 178 174 176 183 193 205 218 232 237 227 223 243 273 316 355 296 164 147 147 131 79 50 37 29 24 20 17 14 11 9 4 359 354 351 353 356 358 1 2 359 354 351 351 351 352 353 353 351 350 349 348 344 341 337 330 323 319 314 307
145 134 127 125 125 125 122 119 122 128 131 130 129 129 135 149 159 164 165 166 165 164 163 164 170 174 174 174 180 192 207 219 234 244 238 225 226 242 270 350 359 289 168 169 174 168 73 19 13 16 17 15 13 13 12 10 7 2 356 351 352 356 357 358 0 0 356 353 353 353 352 352 354 354 353 354 355 354 351 347 338 329 323 320 314
149 142 136 134 131 124 117 115 122 132 137 139 138 140 146 155 162 165 165 165 164 162 161 164 170 176 180 185 194 207 221 231 239 234 219 214 221 239 306 32 338 184 182 190 201 218 284 320 344 5 10 8 8 10 10 8 7 5 0 355 356 0 0 358 359 0 359 357 356 355 353 353 355 356 357 359 2 3 2 358 349 336 327 325 320
154 153 153 150 143 136 133 135 140 145 147 148 151 153 155 159 161 161 160 162 165 167 169 171 176 184 191 199 209 219 225 229 226 209 199 203 217 228 151 192 221 190 197 210 225 247 272 296 333 0 4 3 4 7 8 6 5 5 3 1 2 5 4 0 0 2 3 1 359 358 357 356 356 358 1 4 7 10 11 10 6 356 342 334 327
155 159 162 162 158 153 149 149 153 158 160 160 161 160 161 162 163 163 164 166 171 174 176 180 188 196 204 212 222 228 229 227 218 201 194 199 209 196 169 208 228 210 216 229 243 260 279 299 333 359 1 1 4 5 4 1 1 3 4 4 5 6 6 3 2 4 6 6 3 1 0 359 358 360 4 8 11 13 15 16 18 17 12 8 13
160 161 161 163 165 164 160 159 160 163 165 166 167 168 169 171 173 176 180 186 191 194 196 200 206 214 221 226 230 231 230 226 218 203 195 197 202 194 188 214 232 229 240 258 276 296 311 324 349 1 0 3 5 3 360 357 358 0 2 4 6 8 8 6 4 5 8 9 8 5 3 3 3 4 7 11 14 17 19 20 23 26 29 37 51
162 162 162 165 169 171 173 175 174 174 175 177 177 177 180 185 190 196 202 210 217 218 218 218 218 216 219 224 227 226 223 221 215 204 197 197 201 202 201 222 242 249 267 293 318 337 347 354 2 2 2 4 5 2 357 354 356 358 360 2 6 8 9 9 8 7 8 11 12 9 6 5 7 10 13 15 18 21 24 25 27 29 33 42 55
162 164 164 166 170 175 180 184 184 184 186 189 191 195 199 203 210 218 225 234 240 241 245 250 248 234 223 221 222 221 220 218 210 200 197 200 205 206 211 237 259 273 303 327 343 356 1 360 359 360 1 4 5 1 356 355 355 356 357 360 4 8 10 11 12 11 11 12 14 13 10 8 9 13 17 20 22 25 27 29 30 30 32 36 44
Height
1509 1511 1512 1513 1514 1515 1518 1521 1524 1527 1529 1532 1533 1534 1535 1535 1535 1535 1535 1535 1535 1534 1535 1534 1534 1534 1533 1534 1534 1534 1535 1536 1536 1537 1538 1538 1538 1539 1539 1539 1539 1539 1540 1540 1540 1540 1540 1540 1540 1540 1540 1540 1540 1540 1540 1540 1540 1540 1539 1539 1539 1539 1538 1538 1538 1538 1538 1538 1538 1537 1537 1537 1536 1536 1535 1535 1534 1534 1533 1532 1532 1531 1531 1530 1529
1508 1511 1513 1513 1514 1515 1517 1519 1522 1525 1527 1529 1531 1532 1533 1534 1534 1535 1534 1534 1534 1534 1534 1534 1534 1534 1533 1533 1533 1534 1534 1535 1535 1536 1536 1537 1537 1538 1538 1538 1539 1539 1539 1539 1539 1540 1540 1540 1540 1540 1540 1540 1540 1540 1540 1540 1540 1540 1539 1539 1539 1538 1538 1538 1538 1537 1537 1537 1537 1536 1536 1535 1535 1534 1533 1532 1532 1531 1531 1530 1530 1529 1528 1527 1527
1506 1509 1511 1513 1513 1515 1517 1519 1521 1523 1525 1527 1529 1530 1531 1532 1533 1533 1533 1533 1533 1533 1533 1533 1533 1533 1533 1533 1533 1533 1533 1533 1534 1535 1535 1536 1536 1536 1537 1537 1538 1538 1538 1538 1539 1539 1539 1539 1540 1540 1540 1540 1540 1540 1540 1540 1540 1539 1539 1539 1539 1539 1538 1538 1537 1537 1536 1536 1535 1535 1534 1534 1533 1532 1532 1531 1530 1529 1528 1528 1527 1527 1526 1525 1524
1505 1508 1510 1512 1513 1515 1517 1518 1519 1521 1523 1525 1526 1528 1528 1530 1531 1531 1531 1531 1531 1531 1531 1532 1532 1532 1532 1532 1532 1531 1532 1532 1533 1533 1534 1534 1535 1535 1536 1536 1537 1537 1537 1537 1538 1538 1538 1539 1539 1539 1540 1540 1540 1540 1540 1540 1540 1539 1539 1539 1539 1539 1538 1538 1537 1536 1535 1534 1534 1534 1533 1532 1532 1531 1530 1529 1529 1528 1527 1526 1525 1524 1524 1523 1522
1506 1509 1511 1512 1513 1515 1516 1516 1517 1519 1520 1521 1524 1525 1526 1527 1528 1528 1528 1528 1528 1529 1529 1530 1530 1530 1530 1530 1530 1530 1530 1531 1531 1532 1532 1533 1533 1534 1534 1534 1535 1535 1536 1536 1536 1536 1537 1537 1538 1538 1538 1539 1539 1539 1539 1539 1539 1539 1539 1539 1538 1538 1538 1537 1537 1536 1535 1534 1533 1532 1532 1531 1530 1530 1528 1527 1526 1525 1525 1524 1523 1522 1521 1521 1521
1508 1510 1512 1513 1514 1515 1516 1516 1518 1518 1519 1520 1522 1524 1525 1525 1525 1526 1527 1526 1526 1527 1528 1528 1529 1529 1529 1528 1528 1528 1529 1529 1530 1530 1531 1531 1531 1531 1532 1532 1533 1533 1534 1534 1535 1535 1535 1536 1536 1537 1537 1538 1538 1538 1538 1538 1538 1538 1538 1538 1537 1537 1537 1536 1536 1535 1534 1533 1532 1531 1530 1529 1528 1528 1527 1525 1523 1522 1521 1521 1521 1520 1519 1518 1518
1509 1511 1512 1513 1515 1516 1516 1517 1518 1518 1518 1519 1521 1522 1523 1523 1523 1524 1525 1525 1524 1524 1526 1527 1527 1527 1527 1527 1527 1527 1527 1528 1528 1528 1529 1529 1529 1529 1529 1530 1530 1531 1532 1533 1533 1533 1533 1534 1534 1534 1535 1536 1537 1537 1537 1537 1537 1537 1537 1537 1536 1536 1535 1535 1534 1533 1532 1531 1530 1529 1529 1528 1527 1525 1525 1524 1522 1520 1518 1517 1517 1517 1517 1515 1515
1510 1511 1512 1513 1514 1515 1515 1516 1517 1517 1518 1519 1519 1520 1521 1521 1521 1522 1522 1521 1522 1522 1524 1525 1525 1525 1525 1525 1525 1525 1525 1525 1526 1527 1527 1527 1527 1527 1527 1527 1528 1529 1530 1531 1531 1531 1531 1532 1532 1532 1533 1534 1535 1535 1535 1536 1536 1536 1536 1535 1535 1534 1534 1533 1532 1531 1530 1529 1529 1527 1526 1526 1525 1523 1522 1521 1520 1519 1517 1515 1513 1513 1512 1512 1512
1510 1511 1512 1513 1514 1514 1514 1515 1516 1517 1518 1518 1519 1520 1520 1520 1519 1519 1519 1519 1520 1521 1522 1522 1523 1523 1523 1523 1523 1523 1523 1523 1524 1525 1526 1526 1526 1525 1525 1525 1526 1526 1527 1528 1529 1529 1529 1530 1530 1530 1531 1531 1532 1533 1533 1533 1534 1534 1534 1534 1533 1533 1532 1531 1530 1529 1529 1528 1527 1525 1524 1524 1523 1521 1520 1519 1517 1515 1515 1513 1511 1510 1509 1508 1509
1511 1512 1513 1514 1514 1514 1515 1516 1517 1518 1518 1519 1519 1520 1520 1519 1519 1518 1518 1519 1519 1520 1520 1520 1520 1521 1521 1520 1520 1520 1520 1521 1522 1522 1523 1523 1523 1523 1523 1523 1523 1523 1524 1525 1526 1526 1527 1528 1528 1528 1529 1529 1530 1530 1530 1531 1531 1531 1532 1531 1531 1531 1530 1529 1528 1527 1526 1525 1524 1523 1522 1521 1520 1519 1517 1516 1515 1513 1512 1510 1508 1507 1506 1504 1505
1511 1512 1513 1514 1515 1515 1516 1516 1517 1518 1518 1519 1519 1519 1519 1519 1518 1518 1518 1518 1518 1518 1519 1519 1519 1519 1519 1519 1519 1519 1519 1519 1519 1520 1520 1521 1521 1521 1521 1521 1521 1521 1521 1522 1523 1524 1524 1525 1525 1526 1526 1527 1528 1528 1528 1528 1528 1528 1529 1529 1529 1529 1528 1527 1526 1525 1524 1523 1522 1521 1520 1518 1518 1517 1515 1513 1512 1511 1510 1508 1506 1504 1503 1500 1499
1511 1512 1513 1514 1514 1515 1516 1516 1517 1517 1517 1518 1518 1518 1518 1518 1518 1518 1517 1517 1518 1517 1518 1518 1518 1517 1517 1518 1518 1518 1518 1518 1518 1518 1518 1518 1518 1518 1518 1519 1518 1518 1519 1519 1520 1521 1521 1522 1523 1523 1524 1524 1525 1526 1526 1526 1526 1526 1526 1526 1526 1527 1526 1525 1524 1523 1522 1520 1519 1519 1518 1516 1515 1514 1513 1510 1509 1508 1506 1505 1504 1502 1500 1498 1496
1510 1511 1512 1513 1514 1514 1515 1515 1516 1516 1516 1517 1517 1517 1517 1517 1517 1517 1516 1516 1516 1516 1517 1517 1517 1516 1516 1516 1517 1517 1517 1517 1517 1517 1517 1517 1517 1517 1517 1517 1516 1516 1517 1517 1518 1519 1519 1520 1520 1521 1522 1522 1523 1524 1524 1524 1524 1523 1523 1524 1524 1524 1523 1523 1522 1520 1519 1518 1516 1516 1515 1513 1511 1511 1510 1508 1505 1504 1503 1502 1501 1498 1497 1496 1493
1510 1511 1511 1512 1513 1513 1514 1514 1514 1515 1515 1515 1515 1515 1516 1516 1515 1515 1515 1515 1515 1515 1515 1515 1515 1515 1515 1515 1515 1515 1515 1515 1515 1515 1515 1515 1515 1515 1515 1515 1514 1514 1515 1515 1516 1516 1517 1518 1518 1519 1519 1520 1521 1521 1521 1521 1521 1521 1521 1521 1521 1521 1521 1520 1519 1517 1516 1515 1514 1513 1513 1511 1509 1508 1507 1505 1503 1501 1500 1498 1497 1495 1493 1492 1490
1509 1510 1511 1511 1512 1512 1513 1513 1513 1513 1514 1514 1514 1514 1514 1514 1514 1514 1514 1514 1514 1514 1514 1514 1514 1514 1513 1513 1513 1514 1514 1514 1513 1513 1513 1513 1513 1513 1513 1513 1513 1512 1512 1513 1513 1514 1514 1515 1516 1517 1518 1518 1519 1519 1519 1519 1519 1518 1518 1518 1518 1518 1517 1517 1516 1514 1513 1512 1511 1510 1510 1508 1507 1505 1504 1503 1500 1499 1497 1495 1493 1492 1490 1487 1486
1508 1509 1510 1510 1511 1511 1512 1512 1512 1512 1512 1513 1513 1513 1513 1513 1513 1513 1513 1513 1513 1513 1512 1512 1512 1512 1512 1512 1512 1512 1512 1512 1512 1512 1511 1511 1511 1511 1511 1511 1510 1510 1511 1511 1511 1512 1513 1514 1514 1515 1516 1516 1517 1517 1517 1517 1516 1516 1515 1514 1514 1514 1514 1513 1512 1511 1510 1509 1508 1507 1505 1504 1503 1501 1500 1499 1497 1495 1493 1491 1490 1489 1486 1483 1481
1507 1508 1509 1509 1510 1510 1511 1511 1511 1511 1511 1511 1512 1512 1512 1512 1512 1511 1511 1511 1511 1511 1511 1511 1511 1511 1511 1510 1510 1510 1510 1510 1510 1510 1509 1509 1509 1509 1509 1509 1508 1508 1509 1509 1509 1510 1511 1512 1512 1513 1513 1514 1514 1514 1514 1514 1514 1513 1512 1512 1511 1511 1511 1510 1509 1508 1507 1506 1504 1503 1502 1500 1499 1497 1496 1495 1493 1492 1489 1486 1486 1485 1482 1478 1476
1506 1506 1507 1508 1508 1509 1509 1509 1509 1510 1510 1510 1510 1510 1510 1510 1510 1510 1510 1510 1509 1509 1509 1509 1509 1509 1509 1508 1508 1508 1508 1508 1508 1508 1508 1507 1507 1507 1507 1507 1507 1507 1507 1507 1508 1509 1509 1510 1510 1510 1511 1512 1512 1512 1512 1512 1511 1510 1510 1509 1509 1509 1508 1507 1506 1505 1504 1503 1501 1500 1498 1497 1495 1494 1493 1491 1490 1489 1486 1483 1482 1481 1478 1476 1473
1504 1504 1505 1506 1506 1507 1507 1507 1507 1508 1508 1508 1508 1508 1508 1508 1508 1508 1508 1508 1507 1507 1507 1507 1507 1507 1507 1507 1506 1506 1506 1505 1505 1505 1506 1505 1505 1505 1505 1505 1505 1505 1506 1506 1506 1507 1507 1508 1508 1509 1509 1510 1510 1510 1509 1509 1508 1508 1507 1507 1506 1506 1505 1503 1502 1501 1500 1498 1497 1495 1494 1493 1491 1490 1489 1487 1486 1485 1483 1481 1479 1477 1475 1473 1471
1502 1502 1503 1503 1504 1504 1505 1505 1505 1506 1506 1506 1506 1507 1507 1507 1507 1506 1506 1506 1505 1505 1505 1505 1505 1505 1505 1505 1505 1504 1504 1503 1503 1503 1504 1504 1504 1504 1503 1503 1503 1503 1504 1504 1504 1505 1505 1506 1506 1507 1507 1508 1508 1507 1507 1507 1506 1505 1505 1504 1503 1502 1501 1499 1498 1496 1495 1493 1492 1490 1489 1488 1487 1485 1484 1483 1482 1481 1480 1479 1477 1475 1472 1470 1469
1500 1501 1501 1501 1502 1502 1503 1503 1503 1504 1504 1504 1504 1505 1505 1505 1505 1504 1504 1503 1503 1502 1502 1502 1503 1503 1503 1503 1503 1502 1502 1502 1502 1502 1502 1502 1502 1502 1502 1502 1502 1502 1502 1502 1502 1503 1503 1504 1504 1505 1505 1505 1505 1505 1505 1504 1503 1503 1502 1501 1500 1499 1497 1495 1494 1492 1491 1489 1488 1486 1485 1484 1483 1482 1480 1479 1478 1477 1476 1475 1474 1472 1470 1468 1466
1498 1498 1499 1499 1500 1500 1500 1501 1501 1502 1502 1502 1502 1502 1502 1502 1502 1502 1501 1501 1500 1500 1500 1500 1500 1500 1500 1501 1501 1500 1500 1501 1500 1500 1500 1500 1500 1501 1501 1500 1500 1501 1501 1501 1501 1501 1502 1502 1503 1503 1503 1503 1503 1502 1502 1501 1500 1500 1499 1498 1496 1495 1493 1492 1491 1489 1488 1486 1484 1483 1482 1480 1479 1477 1476 1475 1474 1473 1472 1471 1470 1469 1468 1466 1464
1495 1496 1496 1497 1497 1497 1498 1498 1499 1499 1499 1500 1499 1500 1500 1500 1500 1499 1499 1498 1497 1497 1497 1498 1498 1498 1498 1498 1498 1498 1498 1499 1499 1499 1499 1499 1499 1499 1499 1499 1500 1500 1500 1500 1500 1500 1500 1501 1501 1501 1501 1500 1500 1499 1498 1498 1497 1496 1495 1494 1493 1491 1490 1489 1487 1486 1484 1483 1481 1479 1478 1476 1475 1473 1472 1471 1470 1469 1468 1467 1466 1465 1464 1462 1461
1492 1493 1493 1494 1494 1495 1495 1496 1496 1496 1497 1497 1497 1497 1497 1497 1497 1497 1497 1496 1495 1495 1495 1495 1496 1496 1496 1496 1496 1496 1496 1496 1497 1497 1497 1498 1498 1498 1498 1498 1498 1499 1499 1499 1499 1499 1499 1498 1498 1498 1498 1497 1496 1496 1495 1495 1494 1493 1492 1491 1489 1488 1487 1485 1484 1482 1481 1479 1477 1476 1474 1473 1471 1470 1468 1467 1466 1465 1464 1463 1461 1461 1459 1458 1457
1489 1490 1490 1491 1491 1492 1492 1493 1493 1493 1494 1494 1494 1494 1494 1494 1494 1494 1494 1494 1493 1493 1493 1493 1493 1493 1494 1494 1494 1494 1494 1494 1494 1495 1495 1496 1496 1496 1496 1497 1497 1497 1497 1497 1497 1497 1496 1496 1496 1495 1495 1494 1494 1494 1493 1492 1491 1490 1489 1488 1487 1485 1484 1482 1481 1479 1477 1476 1474 1472 1471 1469 1468 1467 1465 1464 1463 1461 1460 1459 1457 1456 1455 1453 1452
1487 1487 1488 1488 1489 1489 1489 1489 1490 1490 1490 1491 1491 1491 1491 1491 1491 1491 1491 1491 1490 1490 1490 1491 1491 1491 1491 1492 1492 1491 1491 1492 1492 1493 1493 1494 1494 1494 1495 1494 1494 1495 1495 1495 1495 1495 1494 1494 1493 1493 1493 1492 1492 1491 1490 1490 1489 1488 1487 1485 1484 1483 1481 1479 1478 1476 1474 1472 1471 1469 1467 1466 1465 1463 1462 1461 1459 1458 1456 1455 1453 1451 1450 1449 1447
1484 1484 1485 1485 1486 1486 1486 1486 1486 1486 1486 1486 1487 1487 1487 1487 1487 1487 1487 1487 1487 1487 1487 1488 1488 1489 1489 1489 1489 1489 1489 1490 1490 1491 1491 1491 1492 1492 1493 1493 1493 1493 1493 1493 1493 1493 1493 1492 1492 1491 1491 1490 1490 1489 1488 1487 1486 1485 1484 1483 1481 1480 1478 1477 1475 1473 1471 1469 1467 1465 1464 1463 1461 1459 1458 1457 1455 1454 1453 1451 1449 1447 1446 1445 1442
1481 1481 1482 1482 1482 1482 1482 1482 1482 1482 1482 1482 1482 1482 1483 1483 1483 1483 1484 1484 1484 1484 1485 1485 1486 1486 1487 1487 1487 1487 1487 1488 1488 1488 1489 1489 1490 1491 1491 1492 1492 1492 1492 1492 1491 1491 1491 1490 1490 1489 1489 1488 1488 1487 1486 1485 1484 1483 1481 1480 1478 1477 1475 1474 1472 1470 1468 1466 1464 1462 1460 1459 1457 1455 1454 1452 1451 1450 1449 1447 1445 1443 1442 1441 1438
1478 1478 1478 1478 1478 1478 1478 1478 1478 1478 1478 1477 1477 1478 1478 1479 1479 1480 1480 1481 1481 1481 1482 1482 1483 1484 1484 1484 1484 1485 1486 1486 1487 1487 1488 1488 1489 1490 1490 1491 1491 1491 1491 1490 1490 1490 1489 1489 1489 1488 1488 1487 1486 1485 1484 1483 1481 1480 1478 1477 1475 1474 1472 1471 1469 1467 1465 1463 1461 1458 1456 1454 1453 1451 1449 1447 1446 1445 1444 1443 1441 1439 1438 1437 1434
1474 1475 1474 1474 1474 1474 1474 1474 1474 1474 1473 1473 1473 1473 1473 1474 1474 1475 1476 1476 1477 1478 1478 1479 1480 1481 1481 1482 1482 1483 1484 1485 1485 1486 1487 1488 1488 1489 1490 1490 1489 1489 1489 1489 1489 1488 1488 1488 1488 1487 1486 1485 1484 1482 1481 1480 1478 1477 1475 1474 1473 1471 1470 1468 1466 1464 1462 1459 1457 1455 1452 1450 1448 1447 1445 1443 1441 1440 1440 1438 1437 1435 1434 1432 1430
1471 1471 1471 1470 1470 1470 1470 1470 1470 1469 1469 1469 1468 1468 1468 1468 1468 1469 1470 1472 1473 1474 1475 1476 1477 1477 1478 1479 1480 1481 1482 1483 1484 1485 1486 1487 1488 1488 1488 1488 1488 1488 1488 1488 1488 1488 1487 1487 1487 1486 1484 1483 1482 1480 1479 1477 1476 1474 1473 1472 1470 1468 1466 1465 1462 1460 1457 1455 1453 1451 1449 1446 1444 1443 1441 1439 1437 1436 1435 1434 1433 1432 1430 1429 1427
1468 1467 1467 1467 1466 1466 1466 1465 1465 1465 1464 1463 1463 1463 1462 1462 1463 1464 1466 1468 1470 1471 1472 1472 1473 1474 1475 1477 1478 1479 1481 1482 1483 1485 1486 1486 1487 1487 1487 1487 1487 1487 1487 1487 1487 1487 1486 1486 1485 1484 1483 1481 1480 1479 1477 1476 1474 1473 1471 1469 1467 1465 1463 1461 1459 1457 1454 1452 1449 1447 1445 1443 1441 1439 1438 1436 1434 1433 1431 1430 1429 1428 1427 1425 1424
1464 1463 1463 1462 1462 1462 1461 1461 1460 1459 1458 1457 1456 1456 1457 1458 1459 1461 1463 1465 1467 1468 1469 1470 1471 1472 1473 1475 1477 1478 1480 1481 1482 1484 1485 1485 1486 1487 1487 1487 1487 1487 1486 1486 1486 1486 1485 1484 1484 1482 1481 1480 1479 1477 1476 1474 1472 1471 1469 1466 1464 1462 1460 1458 1456 1453 1451 1449 1446 1444 1442 1440 1438 1436 1434 1433 1431 1430 1428 1427 1426 1424 1423 1421 1420
1460 1460 1459 1459 1458 1457 1457 1456 1454 1453 1452 1451 1451 1452 1453 1455 1457 1458 1460 1462 1464 1465 1467 1468 1470 1471 1473 1475 1477 1478 1480 1481 1482 1483 1484 1485 1486 1486 1487 1487 1486 1486 1486 1485 1485 1485 1484 1483 1482 1481 1480 1479 1477 1476 1474 1473 1471 1469 1467 1464 1462 1460 1457 1455 1453 1450 1448 1445 1443 1441 1439 1437 1435 1433 1431 1429 1428 1426 1425 1423 1422 1421 1419 1418 1416
1457 1457 1456 1455 1454 1453 1453 1452 1451 1450 1449 1449 1449 1450 1451 1453 1455 1456 1457 1459 1461 1463 1465 1467 1469 1472 1473 1475 1477 1478 1480 1481 1481 1483 1484 1485 1485 1486 1486 1486 1486 1485 1485 1485 1484 1484 1483 1482 1481 1480 1479 1477 1476 1474 1473 1471 1469 1467 1464 1462 1460 1457 1455 1452 1450 1447 1445 1442 1440 1438 1436 1434 1432 1430 1428 1426 1425 1423 1421 1420 1419 1417 1416 1414 1413
1455 1454 1453 1453 1452 1451 1450 1449 1448 1447 1447 1447 1448 1449 1450 1452 1453 1455 1456 1458 1460 1462 1464 1467 1469 1472 1475 1476 1477 1479 1480 1481 1482 1483 1484 1484 1485 1485 1485 1485 1485 1484 1484 1484 1483 1483 1482 1481 1480 1478 1477 1476 1474 1473 1471 1469 1467 1465 1463 1461 1458 1455 1452 1449 1447 1444 1442 1440 1437 1435 1433 1431 1429 1427 1425 1423 1421 1420 1418 1416 1415 1414 1412 1411 1410
1453 1452 1452 1451 1451 1450 1449 1448 1447 1446 1446 1446 1447 1448 1449 1451 1453 1455 1457 1459 1461 1463 1466 1468 1470 1472 1475 1476 1478 1479 1480 1481 1482 1483 1484 1484 1484 1484 1484 1484 1484 1484 1483 1483 1482 1482 1481 1479 1478 1477 1476 1475 1473 1471 1469 1468 1466 1464 1462 1459 1456 1453 1450 1447 1445 1442 1439 1437 1435 1433 1430 1428 1426 1424 1422 1420 1418 1416 1414 1413 1411 1410 1409 1408 1407
1452 1452 1451 1451 1450 1450 1449 1448 1447 1447 1447 1447 1448 1450 1451 1453 1455 1457 1459 1461 1463 1466 1468 1470 1471 1473 1475 1476 1478 1479 1480 1481 1482 1483 1483 1484 1484 1484 1484 1484 1483 1483 1483 1482 1482 1481 1480 1479 1478 1477 1475 1474 1472 1470 1468 1466 1464 1462 1460 1457 1454 1451 1448 1445 1443 1440 1437 1435 1432 1430 1428 1426 1423 1421 1419 1417 1415 1413 1411 1410 1408 1407 1405 1404 1403
1452 1452 1452 1451 1451 1451 1450 1449 1449 1449 1450 1451 1452 1453 1455 1456 1458 1460 1462 1463 1465 1467 1469 1471 1473 1474 1476 1477 1478 1479 1480 1481 1481 1482 1483 1483 1483 1483 1483 1483 1483 1482 1482 1481 1480 1480 1479 1478 1477 1476 1474 1472 1471 1469 1467 1465 1463 1461 1459 1456 1453 1449 1447 1444 1441 1438 1435 1433 1430 1428 1426 1423 1421 1419 1416 1414 1412 1410 1408 1407 1405 1404 1402 1401 1400
1453 1453 1452 1452 1452 1453 1453 1452 1452 1452 1453 1455 1456 1457 1459 1460 1461 1463 1464 1466 1467 1469 1471 1472 1474 1475 1477 1478 1478 1479 1480 1480 1481 1482 1482 1482 1482 1483 1482 1482 1482 1482 1481 1481 1480 1479 1479 1477 1476 1475 1473 1472 1470 1469 1467 1464 1462 1459 1457 1455 1451 1448 1445 1442 1439 1436 1434 1431 1428 1426 1423 1421 1418 1416 1414 1412 1410 1408 1406 1404 1403 1401 1399 1398 1397
1454 1454 1454 1454 1455 1455 1455 1455 1456 1456 1457 1458 1459 1460 1461 1463 1464 1466 1467 1468 1469 1471 1472 1473 1475 1476 1477 1478 1478 1479 1479 1480 1481 1481 1482 1482 1482 1482 1482 1482 1482 1481 1480 1480 1480 1479 1478 1477 1475 1474 1473 1471 1470 1468 1466 1463 1461 1458 1456 1454 1451 1447 1444 1441 1438 1435 1432 1429 1427 1424 1421 1419 1416 1414 1412 1410 1408 1406 1404 1402 1400 1398 1397 1396 1395
1455 1455 1456 1456 1456 1457 1457 1457 1458 1459 1459 1460 1461 1462 1463 1464 1466 1467 1468 1470 1471 1472 1473 1474 1475 1476 1476 1477 1478 1478 1479 1480 1481 1481 1481 1481 1482 1482 1482 1481 1481 1480 1480 1480 1479 1478 1477 1476 1475 1474 1472 1471 1469 1467 1465 1462 1460 1457 1455 1453 1450 1446 1443 1440 1437 1434 1431 1428 1426 1423 1420 1418 1415 1413 1410 1408 1406 1403 1401 1399 1397 1396 1395 1394 1393
1456 1457 1457 1458 1458 1458 1458 1459 1459 1460 1461 1462 1463 1464 1465 1466 1467 1468 1469 1471 1472 1472 1473 1474 1474 1475 1476 1477 1478 1479 1479 1480 1480 1481 1481 1481 1481 1481 1481 1481 1480 1480 1480 1479 1478 1478 1477 1476 1475 1473 1472 1470 1468 1466 1464 1462 1459 1456 1454 1452 1449 1446 1443 1439 1436 1433 1430 1427 1424 1422 1419 1416 1413 1411 1408 1406 1404 1401 1399 1397 1396 1394 1393 1392 1391
1458 1458 1459 1459 1459 1459 1460 1461 1461 1461 1462 1463 1463 1465 1466 1467 1468 1469 1471 1471 1472 1472 1473 1474 1474 1475 1476 1477 1478 1479 1479 1480 1480 1480 1480 1480 1480 1480 1480 1480 1479 1479 1479 1478 1478 1477 1476 1475 1474 1473 1471 1469 1468 1466 1464 1461 1459 1456 1453 1451 1448 1445 1442 1439 1435 1432 1429 1426 1423 1420 1418 1415 1412 1410 1407 1405 1403 1400 1398 1396 1394 1393 1391 1390 1389
1459 1459 1460 1460 1461 1461 1462 1463 1463 1463 1464 1464 1465 1466 1467 1468 1469 1470 1471 1472 1472 1473 1473 1474 1474 1475 1476 1477 1478 1478 1479 1479 1479 1480 1480 1480 1480 1480 1479 1479 1479 1479 1478 1478 1477 1476 1475 1474 1473 1472 1470 1469 1467 1465 1463 1461 1459 1456 1453 1451 1448 1445 1442 1439 1435 1432 1429 1426 1423 1420 1417 1414 1412 1409 1407 1404 1402 1400 1397 1395 1394 1392 1391 1389 1389
1460 1461 1461 1462 1463 1463 1464 1464 1465 1465 1466 1466 1466 1467 1468 1469 1470 1471 1472 1472 1472 1473 1473 1474 1475 1476 1476 1477 1478 1478 1479 1479 1479 1479 1479 1480 1480 1479 1479 1479 1478 1478 1478 1477 1476 1476 1475 1474 1472 1471 1470 1468 1467 1465 1462 1460 1458 1456 1454 1451 1448 1445 1442 1439 1436 1433 1429 1426 1423 1420 1417 1414 1412 1409 1407 1404 1402 1399 1397 1395 1393 1392 1390 1389 1388
1461 1462 1463 1463 1464 1464 1465 1466 1466 1466 1467 1467 1468 1468 1469 1470 1470 1471 1472 1472 1473 1473 1474 1475 1475 1476 1476 1477 1477 1478 1478 1478 1478 1479 1479 1479 1479 1479 1478 1478 1478 1477 1477 1476 1476 1475 1474 1473 1472 1471 1469 1468 1466 1464 1462 1460 1458 1456 1454 1451 1448 1446 1443 1440 1437 1433 1430 1427 1424 1420 1417 1414 1412 1409 1407 1404 1402 1400 1398 1396 1394 1392 1391 1389 1388
1462 1463 1464 1465 1465 1466 1467 1467 1467 1468 1468 1468 1469 1469 1470 1470 1471 1471 1472 1473 1473 1474 1474 1475 1475 1476 1476 1476 1477 1477 1478 1478 1478 1478 1478 1478 1478 1478 1478 1477 1477 1476 1476 1476 1475 1474 1473 1472 1472 1470 1469 1468 1466 1464 1462 1460 1458 1456 1454 1451 1449 1446 1443 1440 1437 1434 1431 1427 1424 1421 1418 1415 1412 1410 1407 1405 1402 1400 1398 1396 1395 1393 1392 1390 1389
1463 1464 1465 1466 1466 1467 1468 1468 1469 1469 1469 1469 1470 1470 1471 1471 1471 1472 1473 1473 1474 1474 1474 1475 1475 1475 1475 1476 1476 1477 1477 1477 1477 1477 1478 1478 1478 1477 1477 1477 1476 1476 1475 1475 1474 1473 1473 1472 1471 1470 1469 1468 1466 1464 1462 1460 1458 1456 1454 1451 1449 1446 1444 1441 1438 1435 1432 1428 1425 1422 1419 1416 1413 1410 1408 1406 1403 1401 1399 1398 1396 1394 1393 1392 1391
1464 1465 1466 1467 1467 1468 1469 1469 1470 1470 1470 1471 1471 1471 1471 1472 1472 1472 1473 1473 1473 1474 1474 1475 1475 1475 1475 1475 1475 1476 1476 1476 1476 1476 1477 1477 1477 1477 1476 1476 1476 1475 1475 1474 1474 1473 1472 1472 1471 1470 1469 1467 1466 1464 1462 1460 1458 1456 1454 1451 1449 1446 1444 1441 1439 1436 1432 1429 1426 1423 1420 1417 1414 1411 1409 1406 1404 1402 1400 1399 1397 1396 1394 1393 1392
1465 1466 1467 1468 1469 1469 1470 1470 1470 1471 1471 1471 1472 1472 1472 1472 1473 1473 1473 1473 1473 1473 1474 1474 1474 1475 1475 1475 1475 1475 1475 1475 1476 1476 1476 1477 1477 1476 1476 1476 1475 1475 1474 1474 1473 1473 1472 1472 1471 1470 1469 1467 1466 1464 1463 1460 1458 1456 1454 1452 1449 1447 1444 1442 1439 1436 1433 1430 1427 1424 1421 1418 1415 1412 1410 1407 1405 1403 1401 1400 1398 1397 1396 1395 1394